"startDT [UTC]","vpos","CH4 [ppm]","stdev(CH4) [ppm]","CO2 [ppm]","stdev(CO2) [ppm]","H2O_reported [%]","stdev(H2O_reported)","CavityPressure [torr]","CavityTemp [C]","OutletValve","CH4_dry [ppm]","CO2_dry [ppm]","DasTemp [C]","EtalonTemp [C]","WarmBoxTemp [C]","MPVPosition","T_ECpre [C]","T_EC1 [C]","T_EC2 [C]","p_inlet [hPa]","p_in [hPa]","p_out [hPa]","T_inlet [C]","RH_inlet [%]","dwpt_inlet [C]","T_vent [C]","RH_vent [%]","dwpt_vent [C]","flow_vent [l min-1]","flow_inlet [l min-1]","dwpt_sample [C]","T_room [C]"
2016-07-30 00:00:00,3.0,1.86863,0.00508,395.199,3.933,0.4788,0.7204,139.952,45.000,31135.45243,1.87868,397.635,37.839,45.069,45.000,0.00,0.10,-272.77,-272.83,-15,433,-930,27.4,46.6,14.9,27.0,48.0,15.1,5.73,1.71,6.2,30.6
2016-07-30 00:01:00,3.0,1.87532,0.00061,396.874,0.099,0.0639,0.0049,139.999,45.000,31082.80166,1.87649,397.177,37.831,45.069,45.000,0.00,0.09,-272.78,-272.85,-16,432,-931,27.4,46.5,14.9,27.0,48.2,15.1,5.73,1.67,6.3,30.8
2016-07-30 00:02:00,3.0,1.87527,0.00036,397.201,0.081,0.0498,0.0042,140.000,45.000,31070.85139,1.87618,397.437,37.822,45.069,45.000,0.00,0.09,-272.78,-272.84,-16,432,-931,27.4,46.5,14.9,27.0,48.2,15.1,5.73,1.67,6.3,30.7
2016-07-30 00:03:00,3.0,1.87532,0.00039,397.392,0.039,0.0377,0.0041,139.998,45.000,31060.21609,1.87603,397.571,37.821,45.069,45.000,0.00,0.09,-272.77,-272.84,-16,432,-931,27.4,46.4,14.8,27.0,48.2,15.1,5.73,1.67,6.3,30.7
2016-07-30 00:04:00,3.0,1.87538,0.00043,397.436,0.025,0.0293,0.0029,139.996,45.000,31053.57911,1.87591,397.576,37.830,45.069,45.000,0.00,0.09,-272.77,-272.84,-16,432,-931,27.4,46.6,14.9,27.1,48.2,15.2,5.73,1.70,6.3,30.6
2016-07-30 00:05:00,3.0,1.87545,0.00047,397.469,0.030,0.0221,0.0024,139.999,45.000,31047.45209,1.87586,397.575,37.839,45.069,45.000,0.00,0.09,-272.78,-272.85,-15,432,-931,27.4,46.7,15.0,27.1,48.4,15.2,5.73,1.72,6.3,30.7
2016-07-30 00:06:00,3.0,1.87580,0.00027,397.529,0.035,0.0183,0.0020,139.997,45.000,31038.83855,1.87613,397.616,37.820,45.069,45.000,0.00,0.10,-272.78,-272.84,-16,432,-931,27.4,46.6,14.9,27.1,48.4,15.3,5.73,1.74,6.4,30.7
2016-07-30 00:07:00,3.0,1.87587,0.00037,397.536,0.033,0.0154,0.0016,140.001,45.000,31035.49202,1.87614,397.610,37.816,45.069,45.000,0.00,0.10,-272.77,-272.84,-16,432,-931,27.4,46.4,14.9,27.1,48.2,15.2,5.73,1.75,6.4,30.7
2016-07-30 00:08:00,3.0,1.87596,0.00038,397.544,0.039,0.0127,0.0020,140.001,45.000,31032.35103,1.87620,397.605,37.819,45.069,45.000,0.00,0.09,-272.78,-272.85,-16,433,-931,27.4,46.3,14.9,27.1,48.1,15.2,5.73,1.74,6.4,30.6
2016-07-30 00:09:00,3.0,1.87603,0.00033,397.559,0.027,0.0119,0.0022,140.001,45.000,31028.81210,1.87626,397.617,37.812,45.069,45.000,0.00,0.10,-272.78,-272.84,-16,433,-931,27.4,46.5,14.9,27.1,48.1,15.2,5.73,1.72,6.4,30.6
2016-07-30 00:10:00,3.0,1.87596,0.00037,397.576,0.033,0.0102,0.0014,140.001,45.000,31024.83176,1.87612,397.625,37.813,45.069,45.000,0.00,0.10,-272.77,-272.84,-16,433,-931,27.4,46.5,14.9,27.1,48.2,15.2,5.73,1.69,6.4,30.6
2016-07-30 00:11:00,3.0,1.87603,0.00035,397.597,0.033,0.0089,0.0020,139.999,45.000,31021.96492,1.87622,397.639,37.813,45.069,45.000,0.00,0.10,-272.78,-272.84,-16,433,-931,27.4,46.3,14.9,27.1,48.1,15.2,5.73,1.67,6.4,30.6
2016-07-30 00:12:00,3.0,1.87638,0.00037,397.583,0.033,0.0076,0.0017,139.997,45.000,31019.40569,1.87649,397.620,37.826,45.069,45.000,0.00,0.10,-272.78,-272.84,-16,433,-931,27.5,46.1,14.8,27.2,48.0,15.2,5.73,1.66,6.5,30.6
2016-07-30 00:13:00,3.0,1.87610,0.00028,397.584,0.037,0.0071,0.0015,140.001,45.000,31019.94789,1.87626,397.618,37.829,45.069,45.000,0.00,0.10,-272.78,-272.84,-16,433,-931,27.5,46.0,14.8,27.2,47.7,15.1,5.73,1.67,6.5,30.6
2016-07-30 00:14:00,3.0,1.87639,0.00041,397.589,0.030,0.0068,0.0019,140.001,45.000,31017.20322,1.87652,397.622,37.822,45.069,45.000,0.00,0.10,-272.77,-272.84,-16,433,-931,27.5,46.4,15.0,27.2,47.8,15.1,5.73,1.70,6.5,30.6
2016-07-30 00:15:00,3.0,1.87620,0.00041,397.585,0.037,0.0069,0.0018,140.001,45.000,31017.83406,1.87632,397.617,37.816,45.069,45.000,0.00,0.10,-272.77,-272.84,-16,433,-931,27.5,46.3,14.9,27.2,48.1,15.2,5.73,1.71,6.5,30.6
2016-07-30 00:16:00,3.0,1.87603,0.00027,397.600,0.027,0.0056,0.0020,140.001,45.000,31016.67288,1.87614,397.626,37.822,45.069,45.000,0.00,0.09,-272.77,-272.84,-16,433,-931,27.5,46.1,14.9,27.2,48.0,15.2,5.73,1.73,6.5,30.5
2016-07-30 00:17:00,3.0,1.87624,0.00027,397.609,0.036,0.0061,0.0021,139.998,45.000,31014.33514,1.87634,397.639,37.816,45.069,45.000,0.00,0.10,-272.77,-272.84,-16,433,-931,27.5,46.1,14.9,27.2,47.8,15.1,5.73,1.75,6.6,30.5
2016-07-30 00:18:00,3.0,1.87642,0.00037,397.614,0.038,0.0050,0.0018,139.998,45.000,31012.83980,1.87651,397.635,37.816,45.069,45.000,0.00,0.10,-272.78,-272.85,-16,433,-931,27.5,46.1,14.9,27.2,47.9,15.2,5.73,1.74,6.6,30.5
2016-07-30 00:19:00,3.0,1.87661,0.00042,397.630,0.030,0.0045,0.0023,140.002,45.000,31013.71635,1.87668,397.653,37.816,45.069,45.000,0.00,0.10,-272.77,-272.84,-16,433,-931,27.5,45.9,14.8,27.2,47.7,15.2,5.73,1.73,6.6,30.5
2016-07-30 00:20:00,0.0,1.87400,0.00441,388.544,3.751,1.7556,0.6919,140.057,45.000,31694.75831,1.90777,397.209,37.814,45.069,45.000,0.00,0.10,-272.77,-272.83,-18,532,-929,27.5,45.6,14.7,27.3,47.8,15.2,5.73,1.77,6.6,30.4
2016-07-30 00:21:00,0.0,1.86992,0.00065,386.544,0.064,2.0765,0.0048,140.000,45.000,31741.15007,1.91092,396.893,37.813,45.069,45.000,0.00,0.10,-272.77,-272.85,-19,532,-929,27.6,45.5,14.7,27.2,47.5,15.1,5.73,1.67,6.6,30.4
2016-07-30 00:22:00,0.0,1.86946,0.00049,386.562,0.069,2.0854,0.0031,139.999,45.000,31756.01952,1.91055,396.957,37.818,45.069,45.000,0.00,0.10,-272.77,-272.84,-18,533,-929,27.6,45.6,14.7,27.3,47.4,15.1,5.73,1.70,6.6,30.4
2016-07-30 00:23:00,0.0,1.87024,0.00054,386.598,0.073,2.0904,0.0029,140.004,45.000,31768.55562,1.91147,397.018,37.836,45.069,45.000,0.00,0.10,-272.78,-272.83,-17,533,-929,27.6,45.6,14.8,27.3,47.3,15.1,5.73,1.77,6.7,30.4
2016-07-30 00:24:00,0.0,1.86933,0.00074,386.540,0.086,2.0900,0.0037,139.999,45.000,31775.66141,1.91054,396.961,37.825,45.069,45.000,0.00,0.10,-272.78,-272.84,-18,533,-929,27.6,45.4,14.7,27.3,47.3,15.1,5.73,1.82,6.7,30.5
2016-07-30 00:25:00,0.0,1.86947,0.00032,386.636,0.064,2.0895,0.0032,140.000,45.000,31784.36160,1.91066,397.052,37.827,45.069,45.000,0.00,0.10,-272.78,-272.85,-18,533,-929,27.6,45.4,14.7,27.3,47.2,15.0,5.73,1.78,6.7,30.4
2016-07-30 00:26:00,0.0,1.86877,0.00055,386.637,0.082,2.0924,0.0034,139.999,45.000,31793.19840,1.91004,397.071,37.845,45.069,45.000,0.00,0.10,-272.77,-272.84,-18,533,-929,27.6,45.4,14.7,27.3,47.2,15.0,5.73,1.70,6.7,30.4
2016-07-30 00:27:00,0.0,1.86879,0.00047,386.798,0.074,2.0965,0.0033,140.002,45.000,31799.17858,1.91008,397.258,37.864,45.069,45.000,0.00,0.10,-272.77,-272.84,-18,533,-929,27.6,45.5,14.8,27.3,47.2,15.1,5.73,1.66,6.7,30.5
2016-07-30 00:28:00,0.0,1.86898,0.00036,386.820,0.104,2.0946,0.0041,139.998,45.000,31804.10061,1.91032,397.269,37.872,45.069,45.000,0.00,0.10,-272.77,-272.84,-18,534,-929,27.6,45.4,14.7,27.3,47.2,15.1,5.73,1.71,6.7,30.5
2016-07-30 00:29:00,0.0,1.86855,0.00039,386.864,0.072,2.0987,0.0037,139.999,45.000,31809.51787,1.90994,397.340,37.862,45.069,45.000,0.00,0.10,-272.78,-272.84,-18,534,-929,27.6,45.5,14.8,27.3,47.2,15.1,5.73,1.78,6.7,30.5
2016-07-30 00:30:00,0.0,1.86857,0.00054,386.943,0.070,2.1013,0.0035,140.000,45.000,31813.77202,1.91000,397.431,37.824,45.069,45.000,0.00,0.10,-272.77,-272.84,-18,534,-929,27.6,45.6,14.8,27.3,47.3,15.1,5.73,1.81,6.8,30.6
2016-07-30 00:31:00,0.0,1.86909,0.00074,386.948,0.079,2.1030,0.0023,139.999,45.000,31815.61345,1.91054,397.448,37.837,45.069,45.000,0.00,0.10,-272.77,-272.84,-18,534,-929,27.6,45.6,14.8,27.3,47.3,15.1,5.73,1.77,6.8,30.6
2016-07-30 00:32:00,0.0,1.86972,0.00049,386.957,0.084,2.1065,0.0028,140.001,45.000,31818.32241,1.91128,397.476,37.858,45.069,45.000,0.00,0.10,-272.77,-272.85,-17,534,-929,27.6,45.6,14.8,27.3,47.4,15.1,5.73,1.70,6.8,30.6
2016-07-30 00:33:00,0.0,1.86927,0.00054,386.877,0.063,2.1050,0.0041,139.998,45.000,31821.27693,1.91080,397.384,37.858,45.069,45.000,0.00,0.10,-272.77,-272.84,-18,534,-929,27.6,45.4,14.8,27.3,47.3,15.1,5.73,1.67,6.8,30.6
2016-07-30 00:34:00,0.0,1.86955,0.00033,386.912,0.068,2.1018,0.0033,140.002,45.000,31824.13965,1.91104,397.404,37.874,45.069,45.000,0.00,0.10,-272.77,-272.84,-18,534,-929,27.6,45.6,14.8,27.3,47.2,15.1,5.73,1.71,6.8,30.6
2016-07-30 00:35:00,0.0,1.87007,0.00061,386.905,0.067,2.1132,0.0053,139.997,45.000,31824.55109,1.91173,397.460,37.875,45.069,45.000,0.00,0.10,-272.78,-272.84,-18,534,-929,27.6,45.8,14.9,27.3,47.4,15.2,5.73,1.78,6.9,30.6
2016-07-30 00:36:00,0.0,1.86980,0.00071,386.838,0.063,2.1133,0.0034,140.000,45.000,31826.07957,1.91149,397.391,37.875,45.069,45.000,0.00,0.10,-272.78,-272.84,-17,534,-929,27.6,45.7,14.8,27.4,47.5,15.2,5.73,1.81,6.9,30.5
2016-07-30 00:37:00,0.0,1.86983,0.00056,386.853,0.083,2.1101,0.0046,139.999,45.000,31827.76035,1.91153,397.388,37.876,45.069,45.000,0.00,0.10,-272.77,-272.83,-18,534,-929,27.6,45.6,14.8,27.4,47.4,15.2,5.73,1.76,6.9,30.6
2016-07-30 00:38:00,0.0,1.86965,0.00077,386.881,0.049,2.1131,0.0044,139.999,45.000,31827.99859,1.91130,397.431,37.878,45.069,45.000,0.00,0.10,-272.78,-272.84,-18,534,-929,27.7,45.8,14.9,27.4,47.4,15.2,5.73,1.70,6.9,30.6
2016-07-30 00:39:00,0.0,1.86828,0.00084,386.852,0.032,2.1242,0.0035,139.999,45.000,31829.40204,1.91031,397.465,37.904,45.069,45.000,0.00,0.10,-272.77,-272.84,-18,534,-929,27.7,45.9,15.0,27.4,47.6,15.2,5.73,1.67,6.9,30.5
2016-07-30 00:40:00,0.0,1.86758,0.00029,386.818,0.074,2.1232,0.0025,139.998,45.000,31832.10645,1.90943,397.420,37.926,45.069,45.000,0.00,0.10,-272.77,-272.83,-18,534,-929,27.7,45.9,14.9,27.4,47.6,15.2,5.73,1.71,6.9,30.6
2016-07-30 00:41:00,0.0,1.86762,0.00029,386.870,0.049,2.1281,0.0034,139.999,45.000,31832.35721,1.90960,397.505,37.938,45.069,45.000,0.00,0.10,-272.77,-272.83,-17,534,-929,27.7,46.1,15.0,27.4,47.7,15.3,5.73,1.78,6.9,30.7
2016-07-30 00:42:00,0.0,1.86748,0.00039,386.822,0.040,2.1365,0.0034,140.000,45.000,31831.63897,1.90962,397.497,37.938,45.069,45.000,0.00,0.10,-272.78,-272.84,-18,534,-929,27.7,46.1,15.0,27.4,47.9,15.3,5.73,1.81,7.0,30.7
2016-07-30 00:43:00,0.0,1.86743,0.00037,386.816,0.065,2.1339,0.0036,139.999,45.000,31832.57142,1.90955,397.478,37.948,45.069,45.000,0.00,0.10,-272.77,-272.84,-18,534,-929,27.7,46.0,15.0,27.4,47.8,15.3,5.73,1.78,7.0,30.6
2016-07-30 00:44:00,0.0,1.86750,0.00036,386.870,0.050,2.1323,0.0021,139.996,45.000,31832.31263,1.90953,397.525,37.973,45.069,45.000,0.00,0.10,-272.77,-272.84,-18,534,-929,27.7,46.0,15.0,27.4,47.7,15.3,5.73,1.71,7.0,30.7
2016-07-30 00:45:00,0.0,1.86700,0.00046,386.875,0.061,2.1344,0.0032,140.001,45.000,31835.95210,1.90911,397.541,37.992,45.069,45.000,0.00,0.10,-272.77,-272.85,-17,534,-929,27.7,46.0,15.0,27.4,47.8,15.3,5.73,1.67,7.0,30.6
2016-07-30 00:46:00,0.0,1.86675,0.00032,386.937,0.068,2.1372,0.0048,140.000,45.000,31835.28497,1.90893,397.618,37.986,45.069,45.000,0.00,0.10,-272.77,-272.84,-18,535,-929,27.7,46.2,15.1,27.4,47.8,15.3,5.73,1.70,7.0,30.7
2016-07-30 00:47:00,0.0,1.86676,0.00038,386.995,0.074,2.1369,0.0028,139.999,45.000,31835.28337,1.90887,397.677,37.994,45.069,45.000,0.00,0.10,-272.77,-272.84,-18,534,-929,27.7,46.1,15.0,27.4,47.9,15.3,5.73,1.77,7.0,30.7
2016-07-30 00:48:00,0.0,1.86669,0.00047,386.948,0.068,2.1377,0.0044,140.000,45.000,31838.01140,1.90890,397.637,37.999,45.069,45.000,0.00,0.10,-272.78,-272.84,-18,534,-929,27.7,46.0,15.0,27.4,47.9,15.3,5.73,1.81,7.0,30.7
2016-07-30 00:49:00,0.0,1.86712,0.00041,387.040,0.079,2.1340,0.0025,139.999,45.000,31838.31067,1.90920,397.706,38.006,45.069,45.000,0.00,0.10,-272.78,-272.84,-18,535,-929,27.7,46.1,15.0,27.4,47.8,15.3,5.73,1.79,7.0,30.6
2016-07-30 00:50:00,0.0,1.86665,0.00039,387.038,0.066,2.1418,0.0032,139.999,45.000,31839.28843,1.90890,397.750,38.028,45.069,45.000,0.00,0.10,-272.78,-272.84,-17,535,-929,27.7,46.2,15.1,27.4,47.9,15.3,5.73,1.72,7.0,30.6
2016-07-30 00:51:00,0.0,1.86686,0.00048,387.150,0.048,2.1443,0.0030,140.000,45.000,31839.38201,1.90912,397.873,38.050,45.069,45.000,0.00,0.10,-272.77,-272.84,-18,535,-929,27.7,46.3,15.1,27.4,47.9,15.4,5.73,1.68,7.0,30.7
2016-07-30 00:52:00,0.0,1.86671,0.00043,387.183,0.065,2.1495,0.0024,139.999,45.000,31840.24178,1.90915,397.938,38.061,45.069,45.000,0.00,0.10,-272.78,-272.85,-18,535,-929,27.7,46.4,15.2,27.4,48.1,15.4,5.73,1.68,7.1,30.8
2016-07-30 00:53:00,0.0,1.86659,0.00045,387.247,0.066,2.1545,0.0021,140.001,45.000,31841.87731,1.90911,398.030,38.059,45.069,45.000,0.00,0.10,-272.77,-272.84,-18,535,-929,27.7,46.5,15.2,27.4,48.2,15.5,5.73,1.74,7.1,30.8
2016-07-30 00:54:00,0.0,1.86647,0.00053,387.185,0.149,2.1546,0.0035,140.001,45.000,31841.90065,1.90897,397.966,38.063,45.069,45.000,0.00,0.10,-272.78,-272.83,-17,535,-929,27.7,46.4,15.2,27.4,48.2,15.4,5.73,1.80,7.1,30.7
2016-07-30 00:55:00,0.0,1.86687,0.00031,387.241,0.096,2.1540,0.0039,140.001,45.000,31840.60191,1.90934,398.027,38.062,45.069,45.000,0.00,0.10,-272.78,-272.84,-17,535,-929,27.7,46.4,15.2,27.4,48.2,15.5,5.73,1.79,7.1,30.7
2016-07-30 00:56:00,0.0,1.86731,0.00033,387.300,0.083,2.1532,0.0024,139.999,45.000,31842.23201,1.90983,398.078,38.017,45.069,45.000,0.00,0.10,-272.77,-272.84,-18,535,-929,27.7,46.4,15.2,27.4,48.1,15.4,5.73,1.75,7.1,30.9
2016-07-30 00:57:00,0.0,1.86751,0.00044,387.230,0.055,2.1515,0.0036,140.000,45.000,31842.16047,1.90995,397.998,38.003,45.069,45.000,0.00,0.10,-272.77,-272.84,-18,535,-929,27.7,46.2,15.1,27.4,48.1,15.4,5.73,1.69,7.1,30.8
2016-07-30 00:58:00,0.0,1.86846,0.00041,387.293,0.108,2.1485,0.0027,140.001,45.000,31843.47452,1.91084,398.047,38.000,45.069,45.001,0.00,0.10,-272.78,-272.84,-18,535,-929,27.7,46.2,15.1,27.4,48.0,15.4,5.73,1.68,7.1,30.8
2016-07-30 00:59:00,0.0,1.87021,0.00091,387.350,0.127,2.1500,0.0042,139.998,45.000,31845.44010,1.91265,398.111,38.000,45.070,45.001,0.00,0.10,-272.77,-272.85,-17,535,-929,27.7,46.4,15.2,27.4,48.0,15.4,5.73,1.72,7.1,30.7
2016-07-30 01:00:00,0.0,1.87143,0.00113,387.301,0.111,2.1545,0.0023,139.997,45.000,31845.86758,1.91395,398.086,37.999,45.070,45.001,0.00,0.10,-272.77,-272.84,-18,535,-929,27.7,46.3,15.1,27.4,48.1,15.5,5.73,1.77,7.1,30.8
2016-07-30 01:01:00,0.0,1.87301,0.00140,387.407,0.124,2.1513,0.0033,140.000,45.000,31845.97878,1.91564,398.177,38.000,45.069,45.001,0.00,0.10,-272.78,-272.84,-18,535,-929,27.7,46.2,15.1,27.4,48.0,15.4,5.73,1.81,7.1,30.7
2016-07-30 01:02:00,0.0,1.87332,0.00087,387.406,0.098,2.1508,0.0022,139.999,45.000,31846.06675,1.91587,398.178,38.000,45.069,45.001,0.00,0.10,-272.79,-272.84,-18,535,-929,27.7,46.2,15.1,27.4,48.0,15.4,5.73,1.78,7.1,30.8
2016-07-30 01:03:00,0.0,1.87413,0.00097,387.565,0.097,2.1481,0.0026,139.999,45.000,31848.15032,1.91665,398.320,38.000,45.069,45.001,0.00,0.10,-272.78,-272.84,-17,535,-929,27.7,46.2,15.1,27.4,47.9,15.4,5.73,1.72,7.1,30.9
2016-07-30 01:04:00,0.0,1.87202,0.00190,387.559,0.138,2.1518,0.0018,140.000,45.000,31846.06295,1.91474,398.341,38.000,45.069,45.000,0.00,0.10,-272.77,-272.84,-17,535,-929,27.7,46.2,15.1,27.4,48.0,15.4,5.73,1.67,7.1,30.8
2016-07-30 01:05:00,0.0,1.86994,0.00145,387.571,0.176,2.1456,0.0031,140.001,45.000,31846.30931,1.91240,398.317,38.009,45.069,45.000,0.00,0.10,-272.77,-272.84,-18,535,-929,27.8,46.1,15.1,27.4,47.9,15.4,5.73,1.69,7.1,30.9
2016-07-30 01:06:00,0.0,1.87110,0.00133,387.762,0.182,2.1456,0.0034,140.000,45.000,31847.40132,1.91336,398.504,38.053,45.069,45.000,0.00,0.10,-272.78,-272.84,-18,535,-929,27.8,46.1,15.1,27.4,47.8,15.4,5.73,1.75,7.1,30.9
2016-07-30 01:07:00,0.0,1.86974,0.00150,387.710,0.221,2.1478,0.0035,139.999,45.000,31846.82162,1.91236,398.481,38.060,45.069,45.000,0.00,0.10,-272.77,-272.83,-18,535,-929,27.8,46.1,15.1,27.4,47.9,15.4,5.73,1.79,7.1,30.9
2016-07-30 01:08:00,0.0,1.86960,0.00105,387.778,0.144,2.1424,0.0035,140.001,45.000,31847.96677,1.91191,398.509,38.063,45.069,45.000,0.00,0.10,-272.78,-272.84,-17,535,-929,27.8,46.0,15.1,27.4,47.7,15.3,5.73,1.80,7.1,30.9
2016-07-30 01:09:00,0.0,1.86915,0.00074,387.800,0.142,2.1459,0.0029,139.998,45.000,31848.24031,1.91153,398.551,38.064,45.069,45.000,0.00,0.10,-272.78,-272.84,-18,535,-929,27.8,46.1,15.1,27.5,47.8,15.4,5.73,1.75,7.1,30.8
2016-07-30 01:10:00,0.0,1.86840,0.00073,387.661,0.179,2.1491,0.0030,140.000,45.000,31848.05474,1.91086,398.433,38.063,45.069,45.000,0.00,0.10,-272.77,-272.84,-18,535,-929,27.8,46.1,15.1,27.5,47.8,15.4,5.73,1.69,7.2,30.9
2016-07-30 01:11:00,0.0,1.86882,0.00065,387.641,0.131,2.1497,0.0027,139.999,45.000,31849.14121,1.91130,398.411,38.074,45.069,45.000,0.00,0.10,-272.77,-272.84,-18,535,-929,27.8,46.2,15.1,27.4,47.8,15.4,5.73,1.67,7.2,30.8
2016-07-30 01:12:00,0.0,1.86904,0.00042,387.710,0.104,2.1572,0.0030,140.000,45.000,31849.12340,1.91161,398.513,38.075,45.069,45.000,0.00,0.10,-272.77,-272.84,-18,535,-929,27.8,46.4,15.2,27.5,48.0,15.5,5.73,1.71,7.2,30.8
2016-07-30 01:13:00,0.0,1.86782,0.00072,387.550,0.169,2.1659,0.0026,140.001,45.000,31851.06528,1.91065,398.408,38.071,45.069,45.000,0.00,0.10,-272.77,-272.84,-17,535,-929,27.8,46.5,15.2,27.5,48.2,15.5,5.73,1.77,7.2,30.7
2016-07-30 01:14:00,0.0,1.86851,0.00059,387.664,0.072,2.1640,0.0024,140.001,45.000,31848.80116,1.91120,398.509,38.079,45.069,45.000,0.00,0.10,-272.78,-272.83,-18,535,-929,27.8,46.5,15.2,27.5,48.2,15.5,5.73,1.80,7.2,30.9
2016-07-30 01:15:00,0.0,1.86792,0.00081,387.578,0.105,2.1685,0.0024,139.999,45.000,31849.17146,1.91085,398.450,38.102,45.069,45.000,0.00,0.10,-272.78,-272.84,-18,535,-929,27.8,46.5,15.3,27.5,48.2,15.5,5.73,1.78,7.2,30.9
2016-07-30 01:16:00,0.0,1.86905,0.00058,387.810,0.106,2.1687,0.0023,140.001,45.000,31851.84236,1.91182,398.681,38.120,45.069,45.000,0.00,0.10,-272.78,-272.84,-18,535,-929,27.8,46.5,15.3,27.5,48.2,15.6,5.73,1.73,7.2,30.9
2016-07-30 01:17:00,0.0,1.86781,0.00070,387.630,0.081,2.1736,0.0027,139.997,45.000,31852.85994,1.91080,398.528,38.123,45.069,45.000,0.00,0.10,-272.77,-272.84,-18,535,-929,27.8,46.6,15.3,27.5,48.3,15.6,5.73,1.68,7.2,30.8
2016-07-30 01:18:00,0.0,1.86885,0.00073,387.802,0.086,2.1706,0.0025,140.001,45.000,31854.63206,1.91175,398.691,38.125,45.069,45.000,0.00,0.10,-272.78,-272.84,-17,535,-929,27.8,46.5,15.3,27.5,48.3,15.6,5.73,1.68,7.2,30.8
2016-07-30 01:19:00,0.0,1.86936,0.00101,387.826,0.155,2.1711,0.0018,139.998,45.000,31854.42262,1.91221,398.713,38.125,45.069,45.000,0.00,0.10,-272.78,-272.84,-18,535,-929,27.8,46.6,15.3,27.5,48.3,15.6,5.73,1.72,7.2,30.9
2016-07-30 01:20:00,0.0,1.86984,0.00132,387.841,0.154,2.1724,0.0026,140.002,45.000,31853.56765,1.91283,398.740,38.125,45.069,45.000,0.00,0.10,-272.77,-272.83,-18,535,-929,27.8,46.5,15.3,27.5,48.3,15.6,5.73,1.77,7.2,31.0
2016-07-30 01:21:00,0.0,1.86924,0.00062,387.818,0.111,2.1709,0.0029,140.000,45.000,31852.50652,1.91221,398.711,38.125,45.069,45.000,0.00,0.10,-272.78,-272.84,-18,535,-929,27.8,46.5,15.3,27.5,48.2,15.6,5.73,1.80,7.2,30.9
2016-07-30 01:22:00,0.0,1.86896,0.00139,387.856,0.182,2.1711,0.0025,140.000,45.000,31855.18877,1.91187,398.746,38.144,45.069,45.000,0.00,0.10,-272.78,-272.84,-18,535,-929,27.8,46.5,15.3,27.5,48.2,15.6,5.73,1.78,7.2,30.9
2016-07-30 01:23:00,0.0,1.86845,0.00035,387.841,0.093,2.1694,0.0033,139.999,45.000,31853.69440,1.91132,398.721,38.147,45.069,45.000,0.00,0.10,-272.77,-272.84,-17,535,-929,27.8,46.4,15.3,27.5,48.2,15.6,5.73,1.72,7.2,30.8
2016-07-30 01:24:00,0.0,1.86915,0.00060,387.974,0.098,2.1687,0.0022,140.000,45.000,31852.83777,1.91199,398.854,38.176,45.069,45.000,0.00,0.10,-272.76,-272.84,-18,535,-929,27.8,46.4,15.3,27.5,48.1,15.5,5.73,1.68,7.2,30.9
2016-07-30 01:25:00,0.0,1.86971,0.00052,388.002,0.095,2.1695,0.0027,140.000,45.000,31851.49655,1.91261,398.888,38.187,45.069,45.000,0.00,0.10,-272.77,-272.84,-18,535,-929,27.8,46.4,15.3,27.5,48.1,15.5,5.73,1.68,7.2,30.9
2016-07-30 01:26:00,0.0,1.86979,0.00080,387.981,0.089,2.1695,0.0026,140.000,45.000,31852.48301,1.91266,398.863,38.196,45.068,45.000,0.00,0.10,-272.78,-272.85,-18,535,-929,27.8,46.4,15.3,27.5,48.2,15.6,5.73,1.72,7.2,30.9
2016-07-30 01:27:00,0.0,1.86901,0.00072,387.865,0.099,2.1704,0.0021,140.000,45.000,31854.18409,1.91191,398.757,38.194,45.068,45.000,0.00,0.10,-272.77,-272.84,-18,535,-929,27.8,46.4,15.2,27.5,48.2,15.6,5.73,1.78,7.2,31.0
2016-07-30 01:28:00,0.0,1.87081,0.00094,388.005,0.104,2.1658,0.0021,139.999,45.000,31852.22980,1.91364,398.871,38.212,45.069,45.000,0.00,0.10,-272.78,-272.84,-17,535,-929,27.8,46.3,15.2,27.5,48.1,15.5,5.73,1.80,7.3,31.0
2016-07-30 01:29:00,0.0,1.87072,0.00115,387.985,0.146,2.1688,0.0025,140.001,45.000,31852.67355,1.91361,398.865,38.235,45.068,45.000,0.00,0.10,-272.78,-272.85,-18,535,-929,27.8,46.4,15.3,27.5,48.1,15.5,5.73,1.77,7.3,31.0
2016-07-30 01:30:00,0.0,1.86954,0.00111,387.867,0.131,2.1663,0.0020,139.998,45.000,31852.80777,1.91235,398.732,38.249,45.069,45.000,0.00,0.10,-272.77,-272.84,-18,535,-929,27.8,46.2,15.2,27.5,48.0,15.5,5.73,1.73,7.3,30.9
2016-07-30 01:31:00,0.0,1.87051,0.00158,387.940,0.152,2.1659,0.0031,140.000,45.000,31854.40857,1.91341,398.808,38.249,45.068,45.000,0.00,0.10,-272.77,-272.84,-18,535,-929,27.8,46.3,15.2,27.5,48.0,15.5,5.73,1.68,7.3,31.0
2016-07-30 01:32:00,0.0,1.87047,0.00076,387.934,0.079,2.1658,0.0017,140.000,45.000,31854.80138,1.91324,398.798,38.249,45.069,45.000,0.00,0.10,-272.78,-272.84,-17,535,-929,27.8,46.3,15.2,27.5,48.0,15.5,5.73,1.68,7.3,31.0
2016-07-30 01:33:00,0.0,1.87095,0.00100,388.027,0.079,2.1684,0.0027,140.001,45.000,31853.70153,1.91389,398.907,38.250,45.069,45.000,0.00,0.10,-272.78,-272.84,-17,535,-929,27.8,46.4,15.3,27.5,48.0,15.5,5.73,1.72,7.3,31.0
2016-07-30 01:34:00,0.0,1.86908,0.00126,387.898,0.131,2.1736,0.0021,140.000,45.000,31855.97225,1.91209,398.804,38.250,45.069,45.000,0.00,0.10,-272.77,-272.83,-18,535,-929,27.8,46.5,15.3,27.5,48.2,15.6,5.73,1.78,7.3,31.0
2016-07-30 01:35:00,0.0,1.87024,0.00161,387.992,0.139,2.1745,0.0022,139.999,45.000,31855.41600,1.91319,398.903,38.249,45.069,45.000,0.00,0.10,-272.78,-272.84,-18,536,-929,27.8,46.6,15.3,27.5,48.2,15.6,5.73,1.80,7.3,31.0
2016-07-30 01:36:00,0.0,1.86967,0.00146,387.840,0.133,2.1840,0.0031,140.001,45.000,31856.23761,1.91299,398.806,38.249,45.069,45.000,0.00,0.10,-272.78,-272.84,-18,536,-929,27.8,46.7,15.4,27.5,48.3,15.6,5.73,1.78,7.3,31.1
2016-07-30 01:37:00,0.0,1.86818,0.00094,387.636,0.111,2.1831,0.0036,140.001,45.000,31856.83603,1.91137,398.588,38.249,45.069,45.000,0.00,0.10,-272.77,-272.84,-18,535,-929,27.8,46.5,15.3,27.5,48.4,15.6,5.73,1.73,7.3,31.0
2016-07-30 01:38:00,0.0,1.86870,0.00147,387.766,0.145,2.1772,0.0029,139.999,45.000,31857.33717,1.91162,398.682,38.247,45.069,45.000,0.00,0.10,-272.77,-272.84,-17,535,-929,27.9,46.5,15.3,27.6,48.2,15.6,5.73,1.68,7.3,31.0
2016-07-30 01:39:00,0.0,1.87072,0.00106,387.804,0.176,2.1847,0.0058,140.002,45.000,31858.62846,1.91395,398.769,38.220,45.069,45.000,0.00,0.10,-272.78,-272.85,-18,536,-929,27.8,46.8,15.4,27.5,48.3,15.6,5.73,1.68,7.3,31.0
2016-07-30 01:40:00,0.0,1.87178,0.00057,387.737,0.061,2.1893,0.0035,140.001,45.000,31858.26535,1.91513,398.726,38.194,45.069,45.001,0.00,0.10,-272.77,-272.84,-18,536,-929,27.9,46.7,15.4,27.6,48.5,15.7,5.73,1.71,7.3,31.0
2016-07-30 01:41:00,0.0,1.87044,0.00120,387.616,0.110,2.1867,0.0027,140.000,45.000,31856.68546,1.91387,398.587,38.201,45.069,45.001,0.00,0.10,-272.77,-272.83,-18,535,-929,27.9,46.6,15.4,27.6,48.4,15.7,5.73,1.76,7.3,31.0
2016-07-30 01:42:00,0.0,1.87128,0.00175,387.659,0.118,2.1829,0.0027,139.997,45.000,31856.83750,1.91432,398.603,38.208,45.069,45.001,0.00,0.10,-272.78,-272.85,-18,535,-929,27.9,46.6,15.4,27.6,48.3,15.7,5.73,1.79,7.3,31.1
2016-07-30 01:43:00,0.0,1.87228,0.00115,387.674,0.082,2.1895,0.0048,139.998,45.000,31856.67484,1.91577,398.662,38.194,45.069,45.001,0.00,0.10,-272.78,-272.84,-18,536,-929,27.9,46.9,15.5,27.6,48.4,15.7,5.73,1.78,7.3,30.9
2016-07-30 01:44:00,0.0,1.87017,0.00113,387.460,0.090,2.1958,0.0023,140.000,45.000,31856.98624,1.91363,398.475,38.210,45.069,45.000,0.00,0.10,-272.77,-272.84,-18,536,-929,27.9,46.8,15.5,27.6,48.6,15.7,5.73,1.74,7.4,30.9
2016-07-30 01:45:00,0.0,1.87052,0.00079,387.497,0.047,2.1965,0.0026,139.999,45.000,31856.67381,1.91398,398.513,38.222,45.069,45.000,0.00,0.10,-272.78,-272.84,-18,536,-929,27.9,46.9,15.5,27.6,48.6,15.7,5.73,1.70,7.3,31.1